Weather History for Gillette, WY

Change the Weather History Date:

Saturday, March 2, 2013

  Actual Average Record
Temperature  
Mean Temperature 45 °F 31 °F  
Max Temperature 56 °F 42 °F 66 °F (1992)
Min Temperature 34 °F 20 °F -18 °F (2002)
Degree Days  
Heating Degree Days 20 34  
Month to date heating degree days 53 68  
Since 1 July heating degree days 5176 5476  
Cooling Degree Days 0 0  
Month to date cooling degree days 0 0  
Year to date cooling degree days 0 0  
Moisture  
Dew Point 30 °F    
Average Humidity 60    
Maximum Humidity 82    
Minimum Humidity 38    
Precipitation  
Precipitation 0.00 in 0.02 in 0.60 in (1951)
Month to date precipitation 0.01 0.04  
Year to date precipitation 1.14 0.82  
Sea Level Pressure  
Sea Level Pressure 30.11 in    
Wind  
Wind Speed 9 mph (WSW)    
Max Wind Speed 18 mph    
Max Gust Speed 22 mph    
Visibility 10 miles    
Events      
T = Trace of Precipitation, MM = Missing Value Source: NWS Daily Summary

Daily Weather History Graph

Daily Weather History Graph

Search for Another Location

Airport:

Trip Planner

Search our weather history database for the weather conditions in past years. The results will help you decide how hot, cold, wet, or windy it might be!

Date:

Astronomy

Mar. 02, 2013 Rise Set
Actual Time 6:37 AM MST 5:51 PM MST
Civil Twilight 6:08 AM MST 6:21 PM MST
Nautical Twilight 5:34 AM MST 6:54 PM MST
Astronomical Twilight 5:00 AM MST 7:28 PM MST
Moon 11:49 PM MST (3/2) 8:53 AM MST (3/2)
Length of Visible Light 12h 13m
Length of Day
11h 14m
Waning Gibbous, 73% of the Moon is Illuminated
Mar 2
Waning Gibbous
Mar 4
Last Quarter
Mar 11
New
Mar 19
First Quarter
Mar 27
Full

Hourly Weather History & Observations

Time (MST) Temp. Windchill Dew Point Humidity Pressure Visibility Wind Dir Wind Speed Gust Speed Precip Events Conditions
12:53 AM 35.1 °F 28.6 °F 28.9 °F 78% 30.25 in 10.0 mi West 8.1 mph - N/A   Clear
1:53 AM 36.0 °F 28.5 °F 28.9 °F 76% 30.24 in 10.0 mi WSW 10.4 mph - N/A   Clear
2:53 AM 37.9 °F 32.1 °F 28.0 °F 68% 30.21 in 10.0 mi West 8.1 mph - N/A   Clear
3:53 AM 37.9 °F 32.1 °F 28.0 °F 68% 30.21 in 10.0 mi West 8.1 mph - N/A   Clear
4:53 AM 36.0 °F 29.0 °F 28.0 °F 73% 30.23 in 10.0 mi West 9.2 mph - N/A   Clear
5:53 AM 36.0 °F 29.6 °F 27.0 °F 70% 30.22 in 10.0 mi West 8.1 mph - N/A   Clear
6:53 AM 37.9 °F 30.9 °F 27.0 °F 65% 30.21 in 10.0 mi West 10.4 mph - N/A   Clear
7:53 AM 39.0 °F 32.3 °F 28.0 °F 65% 30.20 in 10.0 mi West 10.4 mph - N/A   Clear
8:53 AM 44.1 °F 39.0 °F 30.0 °F 58% 30.19 in 10.0 mi West 9.2 mph - N/A   Clear
9:53 AM 45.0 °F 41.8 °F 30.9 °F 58% 30.19 in 10.0 mi WSW 5.8 mph - N/A   Clear
10:53 AM 46.9 °F - 32.0 °F 56% 30.17 in 10.0 mi WSW 10.4 mph - N/A   Clear
11:53 AM 51.1 °F - 32.0 °F 48% 30.14 in 10.0 mi WSW 9.2 mph - N/A   Clear
12:53 PM 53.1 °F - 30.9 °F 43% 30.11 in 10.0 mi WNW 12.7 mph - N/A   Clear
1:53 PM 55.0 °F - 30.9 °F 40% 30.07 in 10.0 mi NW 16.1 mph - N/A   Clear
2:53 PM 55.9 °F - 30.9 °F 39% 30.06 in 10.0 mi NW 10.4 mph - N/A   Clear
3:53 PM 55.0 °F - 30.0 °F 38% 30.05 in 10.0 mi WNW 8.1 mph - N/A   Clear
4:53 PM 52.0 °F - 34.0 °F 50% 30.07 in 10.0 mi WSW 5.8 mph - N/A   Clear
5:53 PM 37.9 °F 34.4 °F 32.0 °F 79% 30.08 in 10.0 mi SSW 4.6 mph - N/A   Clear
6:53 PM 39.0 °F 35.7 °F 30.0 °F 70% 30.05 in 10.0 mi WSW 4.6 mph - N/A   Clear
7:53 PM 37.9 °F 32.7 °F 28.9 °F 70% 30.02 in 10.0 mi SW 6.9 mph - N/A   Clear
8:53 PM 39.0 °F 35.7 °F 28.9 °F 67% 29.97 in 10.0 mi South 4.6 mph - N/A   Clear
9:53 PM 39.9 °F 32.9 °F 28.9 °F 65% 29.93 in 10.0 mi South 11.5 mph - N/A   Clear
10:53 PM 42.1 °F 34.2 °F 28.9 °F 60% 29.89 in 10.0 mi SSW 16.1 mph - N/A   Clear
11:53 PM 42.1 °F 34.5 °F 30.9 °F 65% 29.86 in 10.0 mi SW 15.0 mph - N/A   Clear